Time,TemperatureF,DewpointF,PressureIn,WindDirection,WindDirectionDegrees,WindSpeedMPH,WindSpeedGustMPH,Humidity,HourlyPrecipIn,Conditions,Clouds,dailyrainin,SoftwareType,DateUTC
2013-07-04 02:10:00,77.5,55.7,28.50,NNW,334,2.0,6.0,47,0.00,02:10,,0.00,WeatherDisplay:WD co,2013-07-03 23:10:00,
2013-07-04 02:50:00,76.8,55.1,28.50,NW,318,2.0,4.0,47,0.00,02:50,,0.00,WeatherDisplay:WD co,2013-07-03 23:50:00,
2013-07-04 04:35:00,76.1,55.0,28.50,NW,325,1.0,6.0,48,0.00,04:35,,0.00,WeatherDisplay:WD co,2013-07-04 01:35:00,
2013-07-04 05:15:00,75.7,55.2,28.50,WNW,299,1.0,4.0,49,0.00,05:15,,0.00,WeatherDisplay:WD co,2013-07-04 02:15:00,
2013-07-04 05:40:00,76.3,55.7,28.50,NW,321,3.0,7.0,49,0.00,05:40,,0.00,WeatherDisplay:WD co,2013-07-04 02:40:00,
2013-07-04 06:10:00,76.1,56.1,28.50,NW,325,1.0,4.0,50,0.00,06:10,,0.00,WeatherDisplay:WD co,2013-07-04 03:10:00,
2013-07-04 06:45:00,76.1,56.7,28.51,NNW,331,1.0,4.0,51,0.00,06:45,,0.00,WeatherDisplay:WD co,2013-07-04 03:45:00,
2013-07-04 07:40:00,78.1,57.9,28.51,WNW,283,2.0,5.0,50,0.00,07:40,,0.00,WeatherDisplay:WD co,2013-07-04 04:40:00,
2013-07-04 08:00:00,79.3,58.5,28.51,NW,311,3.0,5.0,49,0.00,08:00,,0.00,WeatherDisplay:WD co,2013-07-04 05:00:00,
2013-07-04 09:10:00,81.3,60.3,28.51,NW,314,2.0,10.0,49,0.00,09:10,,0.00,WeatherDisplay:WD co,2013-07-04 06:10:00,
2013-07-04 10:15:00,82.4,61.9,28.51,NW,312,7.0,13.0,50,0.00,10:15,,0.00,WeatherDisplay:WD co,2013-07-04 07:15:00,
2013-07-04 11:55:00,85.6,61.9,28.50,NW,311,10.0,15.0,45,0.00,11:55,,0.00,WeatherDisplay:WD co,2013-07-04 08:55:00,
2013-07-04 12:30:00,86.4,61.9,28.50,NW,315,6.0,15.0,44,0.00,12:30,,0.00,WeatherDisplay:WD co,2013-07-04 09:30:00,
2013-07-04 13:10:00,87.1,62.5,28.50,NW,315,5.0,15.0,44,0.00,13:10,,0.00,WeatherDisplay:WD co,2013-07-04 10:10:00,
2013-07-04 14:35:00,89.1,63.7,28.49,NW,311,8.0,15.0,43,0.00,14:35,,0.00,WeatherDisplay:WD co,2013-07-04 11:35:00,
2013-07-04 16:05:00,89.1,64.3,28.47,SW,215,0.0,6.0,44,0.00,16:05,,0.00,WeatherDisplay:WD co,2013-07-04 13:05:00,
2013-07-04 16:35:00,88.7,65.3,28.45,SW,218,8.0,14.0,46,0.00,16:35,,0.00,WeatherDisplay:WD co,2013-07-04 13:35:00,
2013-07-04 17:55:00,88.2,59.4,28.43,NNW,341,7.0,20.0,38,0.00,17:55,,0.00,WeatherDisplay:WD co,2013-07-04 14:55:00,
2013-07-04 18:10:00,89.1,60.1,28.43,NNW,344,6.0,15.0,38,0.00,18:10,,0.00,WeatherDisplay:WD co,2013-07-04 15:10:00,
2013-07-04 18:35:00,89.1,59.4,28.43,NW,320,8.0,15.0,37,0.00,18:35,,0.00,WeatherDisplay:WD co,2013-07-04 15:35:00,
2013-07-04 19:55:00,86.9,58.2,28.45,NW,317,3.0,10.0,38,0.00,19:55,,0.00,WeatherDisplay:WD co,2013-07-04 16:55:00,
2013-07-04 20:35:00,84.0,57.1,28.46,NNW,347,2.0,8.0,40,0.00,20:35,,0.00,WeatherDisplay:WD co,2013-07-04 17:35:00,
2013-07-04 21:45:00,80.8,56.2,28.48,NNW,327,1.0,8.0,43,0.00,21:45,,0.00,WeatherDisplay:WD co,2013-07-04 18:45:00,
2013-07-04 22:00:00,80.4,55.9,28.49,North,349,5.0,10.0,43,0.00,22:00,,0.00,WeatherDisplay:WD co,2013-07-04 19:00:00,
2013-07-04 22:35:00,80.4,55.9,28.49,NW,325,1.0,11.0,43,0.00,22:35,,0.00,WeatherDisplay:WD co,2013-07-04 19:35:00,
2013-07-04 23:10:00,79.9,54.7,28.49,NNW,338,3.0,9.0,42,0.00,23:10,,0.00,WeatherDisplay:WD co,2013-07-04 20:10:00,
2013-07-04 23:20:00,79.9,54.7,28.50,NNW,345,3.0,10.0,42,0.00,23:20,,0.00,WeatherDisplay:WD co,2013-07-04 20:20:00,
2013-07-04 23:35:00,79.7,54.6,28.50,NW,325,2.0,9.0,42,0.00,23:35,,0.00,WeatherDisplay:WD co,2013-07-04 20:35:00,
2013-07-04 23:50:00,79.7,55.2,28.50,NW,323,3.0,5.0,43,0.00,23:50,,0.00,WeatherDisplay:WD co,2013-07-04 20:50:00,